• Join FlightAware (Why Join?)
  • Login
  • US Flag 
06:34PM EDT


 

Airport Tracker/Info


-or-


 

Live Flight TrackerFlight Track Log ✈ N822BB ✈ 09-Aug-2013 ✈ KBDR - KHTO

Flight Track Log - Related Links

Times and Time Zones

All times are in EDT time to prevent confusion due to time zone crossing. See the N822BB flight status page for this flight to view local times or setup timezone preferences in your user account.

Time Position Orientation Groundspeed Altitude Reporting Facility
EDT Latitude Longitude Course Direction KTS MPH feet Rate Location/Type
05:34PM 41.1333 -73.1000 106° East 127 146 1,800  Level New York TRACON
05:35PM 41.1333 -73.0500 90° East 130 150 2,900 600 Climbing New York TRACON
05:36PM 41.1167 -73.0000 114° Southeast 159 183 3,000  Climbing New York TRACON
05:37PM 41.1167 -72.9333 90° East 178 205 3,000  Level New York TRACON
05:38PM 41.1000 -72.8833 114° Southeast 179 206 3,000  Level New York TRACON
05:39PM 41.1159 -72.9191 106° East  Level Estimated
05:39PM 41.0833 -72.8167 108° East 180 207 3,000  Level New York TRACON
05:40PM 41.0667 -72.7500 108° East 178 205 3,000  Level New York TRACON
05:41PM 41.0333 -72.7000 131° Southeast 177 204 3,000  Level New York TRACON
05:42PM 41.0167 -72.6333 108° East 174 200 3,000  Level New York TRACON
05:43PM 41.0000 -72.5833 114° Southeast 177 204 3,000  Level New York TRACON
05:44PM 40.9833 -72.5167 108° East 186 214 3,000  Level New York TRACON
05:45PM 40.9667 -72.4667 114° Southeast 176 203 3,000  Level New York TRACON
05:46PM 40.9500 -72.4000 108° East 175 201 3,000  Level New York TRACON
05:47PM 40.9333 -72.3333 108° East 175 201 3,000  Level New York TRACON
05:48PM 40.9167 -72.2667 108° East 179 206 3,000  Level New York TRACON
05:49PM 40.9167 -72.2167 90° East 176 203 3,000  Level New York TRACON
05:50PM 40.9000 -72.1500 108° East 169 194 3,000  Level New York TRACON
05:51PM 40.9000 -72.0833 90° East 165 190 3,000  Level New York TRACON
05:52PM 40.9000 -72.0333 90° East 167 192 3,000  Level New York TRACON
05:53PM 40.9333 -72.0167 21° North 177 204 3,000 -300 Level New York TRACON
05:54PM 40.9500 -72.0667 294° West 127 146 2,400 -600 Descending New York TRACON
05:59PM 40.9632 -72.1589 281° West  Level FlightAware Approximate
06:06PM 40.9500 -72.2500 252° West  Level FlightAware Approximate
06:07PM 40.9594 -72.2517 252° West  Level Estimated
06:08PM 40.9594 -72.2517 252° West  Level Estimated
06:09PM 40.9594 -72.2517 252° West  Level Estimated
06:10PM 40.9594 -72.2517 252° West  Level Estimated
06:11PM 40.9594 -72.2517 252° West  Level Estimated